Regional Weather Roundup
Issued by NWS

Home | Current Version | Previous Version | Graphics & Text | Print | Product List | Glossary On
Versions: 1 2 3 4 5 6 7 8 9 10 11 12 13 14 15 16 17 18 19 20 21 22 23 24 25 26 27 28
000
ASUS45 KTFX 252010
RWRMT
MONTANA REGIONAL WEATHER ROUNDUP
NATIONAL WEATHER SERVICE GREAT FALLS MT
200 PM MDT WED APR 25 2018

NOTE: "FAIR" INDICATES FEW OR NO CLOUDS BELOW 12000 FEET WITH NO
SIGNIFICANT WEATHER AND/OR OBSTRUCTIONS TO VISIBILITY.

MTZ001>007-043-252100-
WEST OF THE DIVIDE

CITY           SKY/WX    TMP DP  RH WIND       PRES   REMARKS
KALISPELL      FAIR      65  32  29 E9        30.07F
MISSOULA       FAIR      63  33  32 CALM      30.08F
BUTTE          FAIR      60  18  19 W17G25    30.14S
MULLAN PASS    FAIR      53  28  38 VRB6      30.17R
ANACONDA         N/A     63  19  19 MISG        N/A
DEER LODGE       N/A     61  25  25 MISG      30.13S
HAMILTON         N/A     66  25  20 SW9G24    30.10F
PLAINS           N/A     69  35  28 N6        30.05F
RONAN            N/A     66  32  28 W13       30.09S
$$

MTZ008-052>055-252100-
SOUTHWEST MONTANA

CITY           SKY/WX    TMP DP  RH WIND       PRES   REMARKS
BOZEMAN        FAIR      61  29  29 VRB6      30.10F
DILLON         FAIR      60  19  20 W15G29    30.12F
ENNIS            N/A     61  21  21 SW10G21   30.16F
W YELLOWSTONE  FAIR      48  21  34 SW16G25   30.19F
THREE FORKS      N/A     63  25  23 CALM      30.08F
TWIN BRIDGES     N/A     62  19  19 S14       30.08F
$$

MTZ009-010-012-014-046-048-049-054-252100-
EAST SLOPES AND CENTRAL MONTANA

CITY           SKY/WX    TMP DP  RH WIND       PRES   REMARKS
CUT BANK       CLOUDY    53  28  38 N13       30.16S
GREAT FALLS    CLOUDY    54  30  40 N17       30.13R
MALMSTROM AFB  PTSUNNY   54  29  38 N18G26    30.11R
HELENA         FAIR      64  27  24 N8        30.09F
AUGUSTA        PTSUNNY   50  29  43 NE26G32   30.13R
BOWMANS CRNR   FAIR      52  28  39 N15G23    30.12R
CHOTEAU          N/A     52  28  40 N23G31    30.16R
FAIRFIELD      FAIR      56  28  34 N21G33    30.11F
POWER          FAIR      52  29  40 N25G32    30.10F
RAYNESFORD     PTSUNNY   53  30  41 W14       30.11R
ULM            PTSUNNY   57  28  33 N15G24    30.13R
WHITE SULPHUR    N/A     57  23  26 W22       30.08F
$$

MTZ011-013-016-021-045-047-050-051-252100-
NORTH CENTRAL MONTANA

CITY           SKY/WX    TMP DP  RH WIND       PRES   REMARKS
HAVRE          FAIR      60  28  29 N15G25    30.06R
LEWISTOWN      FAIR      59  24  26 NW20G31   30.03R
N BAR RANCH    FAIR      63  21  20 N21G28    30.04R
CHINOOK          N/A     61  30  31 MISG      30.04R
GEYSER         PTSUNNY   53  31  42 N22G28    30.06R
GRASS RANGE    FAIR      59  24  25 N26G37    29.98R
STANFORD       FAIR      53  23  31 N18       30.07R
$$

MTZ017>020-022>027-061-062-252100-
NORTHEAST MONTANA

CITY           SKY/WX    TMP DP  RH WIND       PRES   REMARKS
GLASGOW        FAIR      64  29  26 NW21      29.89S
GLENDIVE       FAIR      67  33  28 SW17G24   29.89F
JORDAN           N/A     66  28  24 NW15      29.93R
MALTA          SUNNY     59  32  36 N22G29    29.94R
SIDNEY         FAIR      68  30  24 W18G24    29.86F
WOLF POINT     FAIR      67  30  25 W16G24    29.87F
PLENTYWOOD       N/A     64  27  24 MISG      29.82F
POPLAR           N/A     64  28  25 MISG      29.86F
SCOBEY           N/A     64  26  23 W20       29.85F
$$

MTZ028>42-056>058-252100-
SOUTHCENTRAL AND SOUTHEAST MONTANA

CITY           SKY/WX    TMP DP  RH WIND       PRES   REMARKS
BAKER          FAIR      67  28  23 W20G28    29.94F
BILLINGS       PTSUNNY   62  30  29 W16       30.03F
LIVINGSTON     FAIR      66  20  17 W29       30.06F
MILES CITY     FAIR      68  33  27 W20G29    29.94F
BIG TIMBER     SUNNY     64  21  19 W21G28    30.07F
EKALAKA          N/A     65  20  18 SW13      29.95F
FORSYTH          N/A     66  28  24 MISG      29.94F
HARLOWTON      PTSUNNY   62  26  25 W25G33    30.05F
LAUREL           N/A     63  30  29 SW15G22   30.04F
$$

REGIONAL REPORTS...DAKOTAS

CITY           SKY/WX    TMP DP  RH WIND       PRES   REMARKS
WILLISTON      FAIR      68  28  22 SW16      29.84F
MINOT          FAIR      70  25  18 SW28G35   29.81F
DICKINSON      FAIR      69  24  18 SW20G28   29.89F
BEACH          FAIR      66  21  18 W20G29    29.94F
CROSBY         FAIR      66  30  26 W17G24    29.81F
TIOGA          FAIR      64  30  27 W21G26    29.84F
WATFORD CITY   FAIR      64  32  29 SW16G25   29.85F
BISMARCK       FAIR      66  25  21 SW20G30   29.94F
GRAND FORKS    PTSUNNY   63  36  36 SW25G37   29.94F
FARGO          FAIR      64  27  24 SW23      30.02F
BUFFALO SD       N/A     70  27  20 SW20G29   29.89F
RAPID CITY     FAIR      72  20  14 S15G25    29.98F
$$

REGIONAL REPORTS...WYOMING/IDAHO/WASHINGTON

CITY           SKY/WX    TMP DP  RH WIND       PRES   REMARKS
GILLETTE       FAIR      70  19  14 SW18      29.99F
SHERIDAN       FAIR      72  32  23 N6        29.95F
BUFFALO WY     FAIR      71  12  10 E6        30.00F
CODY           FAIR      65  13  13 VRB3      30.06F
YELLOWSTONE LA   N/A     49  12  22 VRB7      30.23F
IDAHO FALLS    FAIR      61  25  25 SW8G21    30.19F
SALMON         FAIR      62  30  29 N7        30.13F
BOISE          FAIR      70  36  28 NE5       30.15F
SPOKANE        FAIR      70  30  22 NW8       30.12S
$$

REGIONAL REPORTS...ALBERTA

CITY           SKY/WX    TMP DP  RH WIND       PRES   REMARKS
CALGARY        MOSUNNY   54  25  32 NW7G21    30.15F
CARDSTON         N/A     52  28  40 NE3         N/A
EDMONTON       MOSUNNY   55  25  30 N9        30.10S
FORT MCMURRAY  PTSUNNY   57  27  30 NW9G20    29.99S
HIGH LEVEL     PTSUNNY   59  23  25 VRB6      29.90F
LETHBRIDGE     PTSUNNY   54  32  43 N15       30.17R
LLOYDMINSTER   MOSUNNY   59  25  27 N20G29    30.02S
MEDICINE HAT   PTSUNNY   59  30  33 NW17G29   30.09R
MILK RIVER       N/A     55  30  38 N20G25      N/A
ONEFOUR          N/A     57  28  33 N22G29      N/A
PEACE RIVER    MOSUNNY   54  32  43 SW15G22   30.05F
PINCHER CREEK  MOSUNNY   50  32  50 SE12      30.17S
$$

REGIONAL REPORTS...SASKATCHEWAN

CITY           SKY/WX    TMP DP  RH WIND       PRES   REMARKS
CORONACH         N/A     63  27  25 N20G28      N/A
CYPRESS HILLS    N/A     52  27  37 N15G30      N/A
ESTEVAN        CLOUDY    66  30  26 W18G26    29.79F
MOOSE JAW        N/A     63  25  23 N18G24      N/A
PRINCE ALBERT  PTSUNNY   59  23  25 N17G26    29.95R
REGINA         CLOUDY    63  28  27 N25       29.85S
ROCKGLEN         N/A     59  25  27 N20G30      N/A
SASKATOON      PTSUNNY   61  28  29 N20       29.96R
SWIFT CURRENT  MOSUNNY   59  30  33 NW21G31   29.97R
VAL MARIE        N/A     61  25  25 N23G30      N/A
$$




USA.gov is the U.S. government's official web portal to all federal, state and local government web resources and services.